Terminal Aerodrome Forecast
Issued by NWS King Salmon, AK

Home | Current Version | Previous Version | Text Only | Print | Product List | Glossary On
Versions: 1 2 3 4 5 6 7 8 9 10 11 12 13 14 15 16 17 18 19 20 21 22 23 24 25
000
FTAK31 PANC 292340
TAFAKN
TAF
PAKN 292340Z 3000/3024 18011KT P6SM VCSH FEW045 BKN070
     FM300500 10008KT P6SM SCT080 BKN150
     FM301800 08012KT P6SM BKN080
     FM302100 10014G24KT P6SM BKN250=

USA.gov is the U.S. government's official web portal to all federal, state and local government web resources and services.